Weather History for Biloxi, MS

Change the Weather History Date:

Sunday, September 29, 2013

  Actual Average Record
Temperature  
Mean Temperature 76 °F -  
Max Temperature 84 °F 84 °F 91 °F (1953)
Min Temperature 69 °F 66 °F 45 °F (1967)
Cooling Degree Days 12    
Growing Degree Days 26 (Base 50)    
Moisture  
Dew Point 65 °F    
Average Humidity 70    
Maximum Humidity 83    
Minimum Humidity 54    
Precipitation  
Precipitation 0.00 in - - ()
Sea Level Pressure  
Sea Level Pressure 30.01 in    
Wind  
Wind Speed 7 mph (ENE)    
Max Wind Speed 10 mph    
Max Gust Speed -    
Visibility 10 miles    
Events Rain    
Averages and records for this station are not official NWS values.
T = Trace of Precipitation, MM = Missing Value Source: NWS Daily Summary

Daily Weather History Graph

Daily Weather History Graph

Search for Another Location

Airport:

Trip Planner

Search our weather history database for the weather conditions in past years. The results will help you decide how hot, cold, wet, or windy it might be!

Date:

Astronomy

Sep. 29, 2013 Rise Set
Actual Time 6:48 AM CDT 6:43 PM CDT
Civil Twilight 6:24 AM CDT 7:07 PM CDT
Nautical Twilight 5:56 AM CDT 7:34 PM CDT
Astronomical Twilight 5:28 AM CDT 8:02 PM CDT
Moon 1:48 AM CDT (9/29) 3:22 PM CDT (9/29)
Length of Visible Light 12h 42m
Length of Day
11h 54m
Waning Crescent, 27% of the Moon is Illuminated
Sep 29
Waning Crescent
Oct 4
New
Oct 11
First Quarter
Oct 18
Full
Oct 26
Last Quarter

Hourly Weather History & Observations

Time (CDT) Temp. Heat Index Dew Point Humidity Pressure Visibility Wind Dir Wind Speed Gust Speed Precip Events Conditions
12:58 AM 71.8 °F - 66.4 °F 83% 30.05 in 10.0 mi NE 4.6 mph - N/A   Clear
1:58 AM 70.3 °F - 64.9 °F 83% 30.04 in 10.0 mi ENE 5.8 mph - N/A   Clear
2:58 AM 70.3 °F - 64.8 °F 82% 30.04 in 10.0 mi ENE 6.9 mph - N/A   Clear
3:58 AM 70.0 °F - 64.4 °F 82% 30.02 in 10.0 mi ENE 6.9 mph - N/A   Scattered Clouds
4:58 AM 70.0 °F - 64.2 °F 82% 30.02 in 10.0 mi East 6.9 mph - N/A   Mostly Cloudy
5:58 AM 69.4 °F - 63.9 °F 82% 30.02 in 10.0 mi East 6.9 mph - N/A   Partly Cloudy
6:58 AM 69.8 °F - 63.3 °F 80% 30.03 in 10.0 mi ENE 5.8 mph - N/A   Mostly Cloudy
7:58 AM 70.3 °F - 63.0 °F 77% 30.05 in 10.0 mi ENE 6.9 mph - N/A   Overcast
8:58 AM 73.0 °F - 63.9 °F 73% 30.06 in 10.0 mi ENE 8.1 mph - N/A   Mostly Cloudy
9:58 AM 76.1 °F - 65.3 °F 69% 30.05 in 10.0 mi ENE 6.9 mph - N/A   Overcast
10:58 AM 81.3 °F 83.3 °F 65.7 °F 59% 30.06 in 10.0 mi ENE 10.4 mph - N/A   Partly Cloudy
11:58 AM 83.1 °F 84.8 °F 65.1 °F 54% 30.04 in 10.0 mi ENE 9.2 mph - N/A   Partly Cloudy
12:58 PM 82.2 °F 84.0 °F 65.3 °F 56% 30.02 in 10.0 mi South 9.2 mph - N/A   Scattered Clouds
1:58 PM 84.7 °F 87.4 °F 66.7 °F 55% 29.99 in 10.0 mi SSE 10.4 mph - N/A   Clear
2:58 PM 83.8 °F 86.5 °F 66.9 °F 57% 29.97 in 10.0 mi SSE 10.4 mph - N/A   Partly Cloudy
3:58 PM 83.1 °F 85.2 °F 66.0 °F 56% 29.97 in 10.0 mi SE 8.1 mph - N/A   Clear
4:58 PM 80.8 °F 82.9 °F 66.0 °F 61% 29.97 in 10.0 mi SE 5.8 mph - N/A   Partly Cloudy
5:58 PM 79.9 °F - 66.6 °F 64% 29.98 in 10.0 mi SSE 5.8 mph - N/A   Mostly Cloudy
6:38 PM 77.0 °F - 66.2 °F 69% 29.98 in 10.0 mi NNE 8.1 mph - N/A Rain Light Rain
6:50 PM 77.0 °F - 66.2 °F 69% 29.98 in 10.0 mi ENE 6.9 mph - N/A   Mostly Cloudy
6:58 PM 76.6 °F - 66.0 °F 70% 29.99 in 10.0 mi NE 8.1 mph - 0.00 in   Mostly Cloudy
7:10 PM 77.0 °F - 66.2 °F 69% 29.98 in 10.0 mi NE 5.8 mph - N/A   Mostly Cloudy
7:11 PM 77.0 °F - 66.2 °F 69% 29.98 in 10.0 mi NE 5.8 mph - N/A Rain Light Rain
7:25 PM 75.2 °F - 66.2 °F 73% 29.98 in 10.0 mi NE 6.9 mph - N/A Rain Light Rain
7:26 PM 75.2 °F - 66.2 °F 73% 29.98 in 10.0 mi NE 6.9 mph - N/A   Mostly Cloudy
7:58 PM 75.7 °F - 65.3 °F 70% 30.00 in 10.0 mi ENE 5.8 mph - 0.00 in   Mostly Cloudy
8:11 PM 75.2 °F - 66.2 °F 73% 29.99 in 10.0 mi ENE 5.8 mph - N/A Rain Light Rain
8:20 PM 75.2 °F - 66.2 °F 73% 29.99 in 10.0 mi ENE 5.8 mph - N/A   Mostly Cloudy
8:58 PM 75.6 °F - 65.1 °F 70% 30.00 in 10.0 mi ENE 6.9 mph - 0.00 in   Overcast
9:58 PM 74.8 °F - 64.9 °F 71% 30.00 in 10.0 mi ENE 5.8 mph - N/A   Overcast
10:58 PM 74.5 °F - 64.6 °F 71% 29.98 in 10.0 mi ENE 6.9 mph - N/A   Overcast
11:58 PM 74.5 °F - 64.0 °F 70% 29.97 in 10.0 mi East 8.1 mph - N/A   Mostly Cloudy